Home > Weather > Shenzhen > Past weeks

Flag for China Past Weather in Shenzhen, Guangdong, China — Yesterday and Last 2 Weeks

Now
86 °F

Passing clouds.


Feels Like: 102 °F
Forecast: 78 / 96 °F
Wind: 10 mph from Southwest

Location: Shenzhen Airport

Current Time: Aug 25, 2016 at 9:26:05 PM

Latest Report: Aug 25, 2016 at 9:00 PM


Visibility: 5 mi

Pressure: 29.65 "Hg

Humidity: 84%

Dew Point: 81 °F

Location of ShenzhenLocation

Past Weather in Shenzhen — Graph

°F

Shenzhen Temperature Yesterday

Maximum temperature yesterday: 90 °F (at 12:00 PM)
Minimum temperature yesterday: 84 °F (at 1:00 AM)
Average temperature yesterday: 86 °F

High & Low Weather Summary for the Past Weeks

 TemperatureHumidityPressure
High91 °F (Aug 19, 11:00 AM)94% (Aug 12, 6:00 AM)29.74 "Hg (Aug 12, 6:00 AM)
Low79 °F (Aug 14, 6:00 AM)63% (Aug 23, 1:00 PM)29.27 "Hg (Aug 17, 4:00 PM)
Average84 °F83%29.55 "Hg
* Reported Aug 10 8:00 PM — Aug 25 8:00 PM, Shenzhen, Weather by CustomWeather, © 2016

Note: Actual official high and low records may vary slightly from our data, if they occured in-between our weather recording intervals... More about our weather records

Advertising

Shenzhen Weather History for the Previous 24 Hours

Scroll right to see more
 ConditionsComfort  
Time TempWeatherWind HumidityBarometerVisibility
8:00 PM
Thu, Aug 25
86 °FPassing clouds.10 mph84%29.62 "Hg5 mi
7:00 PM86 °FClear.13 mph84%29.62 "Hg5 mi
6:00 PM88 °FClear.15 mph79%29.59 "Hg5 mi
5:00 PM91 °FClear.10 mph67%29.59 "Hg5 mi
4:00 PM91 °FClear.6 mph67%29.59 "Hg5 mi
3:00 PM91 °FClear.6 mph67%29.59 "Hg5 mi
2:00 PM91 °FClear.6 mph67%29.62 "Hg5 mi
1:00 PM90 °FClear.6 mph71%29.65 "Hg5 mi
12:00 PM90 °FClear.8 mph71%29.68 "Hg4 mi
11:00 AM88 °FClear.6 mph75%29.71 "Hg4 mi
10:00 AM88 °FSunny.3 mph75%29.71 "Hg10 mi
9:00 AM88 °FPassing clouds.3 mph70%29.71 "HgN/A
8:00 AM86 °FPassing clouds.6 mph75%29.68 "HgN/A
7:00 AM84 °FPassing clouds.3 mph79%29.68 "HgN/A
6:00 AM82 °FClear.3 mph84%29.65 "Hg10 mi
5:00 AM82 °FClear.3 mph84%29.62 "Hg10 mi
4:00 AM84 °FPassing clouds.3 mph79%29.62 "HgN/A
3:00 AM82 °FPassing clouds.3 mph84%29.62 "HgN/A
2:00 AM84 °FPassing clouds.3 mph74%29.62 "HgN/A
1:00 AM84 °FClear.3 mph74%29.62 "Hg10 mi
12:00 AM84 °FClear.6 mph74%29.65 "Hg10 mi
11:00 PM
Wed, Aug 24
86 °FPassing clouds.6 mph75%29.65 "HgN/A
10:00 PM84 °FClear.6 mph84%29.65 "Hg10 mi
9:00 PM86 °FClear.1 mph84%29.65 "Hg10 mi
Weather by CustomWeather, © 2016

See weather overviewHow to use our weather pages